THOR 7

Last updated on Aug. 8, 2020, 5:32 a.m. UTC

1 40613U 15022A   20220.33165293 -.00000019  00000-0  00000-0 0  9993
2 40613   0.0315 262.5710 0002636 232.5339 299.9353  1.00270844 19367
UTC
Height (km)
Latitude
Longitude
Inclination
Orbital Period
UTC large
Height (km)
Speed (km/s)
/
Latitude / Longitude
Inclination (degrees)
Orbital Period (minutes)
Azimuth
Elevation
Range (km)
Doppler Factor
iOS Compass Heading
iOS Angle

Next 30 passes for location: Hong Kong

Rise time Rise Azimuth (degrees) Set time Set Azimuth (degrees) Duration Max altitude (degrees)

No matching passes for this satellites